[[{"header":{"parameterUnit":"m.s-1","parameterCategory":2,"la1":30.2992,"la2":30.254,"lo1":-89.0895,"lo2":-89.0443,"dy":0.0025,"dx":0.0025,"nx":19,"ny":19,"refTime":"2026-05-23T03:00:00:Z","depth":"0","parameterNumber":2,"parameterNumberName":"U-component_of_CURRENTS"},"data":[0,0,0,-0.1218,-0.1218,-0.1228,-0.1228,-0.1171,-0.117,0,0,0,0,0,0,0,0,0,0,0,-0.1208,-0.1208,-0.1218,-0.1218,-0.1228,-0.1228,-0.1171,-0.117,0,0,0,0,0,0,0,0,0,0,0,-0.1208,-0.1208,-0.1209,-0.1219,-0.1228,-0.1228,-0.1171,-0.1179,0,0,0,0,0,0,0,0,0,0,-0.1177,-0.1176,-0.1208,-0.1209,-0.1219,-0.1228,-0.1228,-0.118,-0.1178,-0.115,0,-0.1156,0,-0.1167,-0.1166,-0.1166,0,0,0,-0.1208,-0.1177,-0.1189,-0.1209,-0.1219,-0.1228,-0.1221,-0.1179,-0.1177,-0.1147,-0.1156,-0.1154,-0.1166,-0.1165,-0.1165,-0.1203,-0.1204,0,0,-0.1208,-0.1198,-0.119,-0.1188,-0.1226,-0.1221,-0.1221,-0.1179,-0.1172,-0.1155,-0.1153,-0.1165,-0.1165,-0.1164,-0.1203,-0.1204,0,0,0,-0.1213,-0.1198,-0.1211,-0.1189,-0.12,-0.1221,-0.1222,-0.1173,-0.1181,-0.1153,-0.1165,-0.1164,-0.1164,-0.1202,-0.1203,-0.1274,0,0,0,-0.1212,-0.1202,-0.1211,-0.1204,-0.1201,-0.1195,-0.1217,-0.1184,-0.118,-0.1165,-0.1164,-0.1163,-0.12,-0.1202,-0.127,-0.1239,0,0,0,-0.1207,-0.1201,-0.1206,-0.1204,-0.1215,-0.1197,-0.1201,-0.1183,-0.1187,-0.1165,-0.1163,-0.12,-0.1202,-0.1266,-0.1235,-0.1053,0,0,0,-0.1191,-0.1248,-0.1206,-0.1278,-0.1215,-0.1282,-0.1202,-0.1228,-0.1221,-0.1164,-0.1201,-0.1203,-0.1265,-0.1233,-0.1054,-0.0521,-0.0474,0,0,-0.1269,-0.1256,-0.1307,-0.1272,-0.1367,-0.1279,-0.1339,-0.1282,-0.1241,-0.1205,-0.1206,-0.1271,-0.1235,-0.1053,-0.0649,-0.0596,0,0,0,-0.1338,-0.1369,-0.1396,-0.143,-0.1446,-0.1407,-0.1372,-0.1345,-0.132,-0.1249,-0.1296,-0.127,-0.1151,-0.0835,-0.0796,-0.0577,-0.1213,-0.1213,-0.1212,-0.1392,-0.143,-0.1488,-0.1519,-0.1539,-0.1501,-0.1466,-0.1412,-0.1397,-0.1407,-0.135,-0.1287,-0.0961,-0.0922,-0.0712,-0.1406,-0.1407,-0.1407,-0.1407,-0.1471,-0.1459,-0.1504,-0.1575,-0.1539,-0.1557,-0.1514,-0.1492,-0.139,-0.1442,-0.1322,-0.0956,-0.088,-0.0671,-0.1412,-0.1411,-0.141,-0.141,-0.141,-0.1462,-0.1433,-0.1509,-0.1512,-0.1509,-0.1505,-0.132,-0.1378,-0.1393,-0.1334,-0.0821,-0.0813,-0.0589,-0.1227,-0.1226,-0.1225,-0.1225,-0.1224,-0.1224,-0.133,-0.1398,-0.1337,-0.1397,-0.1333,-0.1255,-0.1173,-0.1024,-0.0818,-0.0787,-0.0781,-0.0509,-0.1227,-0.1188,-0.121,-0.1213,-0.1215,-0.1216,-0.1217,-0.1138,-0.1172,-0.1077,-0.1015,-0.0876,-0.0631,-0.0624,-0.0173,-0.0079,0.0136,0.0191,-0.0432,-0.0299,-0.0326,-0.0263,-0.0044,-0.0044,-0.0044,-0.0043,-0.0905,-0.0953,-0.0709,-0.0545,-0.0356,-0.0289,0.0319,0.0585,0.0818,0.0946,0.0779,0.0814,0.0757,0.0946,0.0891,0.0974,0.1502,0.1503,0.1505,-0.0613,-0.0628,-0.036,-0.0318,-0.0104,0.0154,0.0724,0.1113,0.1465,0.156,0.0965,0.09,0.0918,0.0812,0.107,0.0975,0.1097,0,0]},{"header":{"parameterUnit":"m.s-1","parameterCategory":2,"la1":30.2992,"la2":30.254,"lo1":-89.0895,"lo2":-89.0443,"dy":0.0025,"dx":0.0025,"nx":19,"ny":19,"refTime":"2026-05-23T03:00:00:Z","depth":"0","parameterNumber":3,"parameterNumberName":"V-component_of_CURRENTS"},"data":[0,0,0,0.0092,0.0095,0.0222,0.0223,0.036,0.0361,0,0,0,0,0,0,0,0,0,0,0,0.0039,0.0039,0.0092,0.0095,0.0222,0.0223,0.036,0.0361,0,0,0,0,0,0,0,0,0,0,0,0.0038,0.0039,0.0039,0.0095,0.0222,0.0223,0.036,0.0273,0,0,0,0,0,0,0,0,0,0,0.0154,0.0094,0.0039,0.0039,0.0096,0.0222,0.0223,0.0269,0.0279,0.0291,0,0.0297,0,0.033,0.0369,0.0369,0,0,0,0.0108,0.0086,0.0129,0.0039,0.0097,0.0222,0.0169,0.0275,0.0285,0.0302,0.0299,0.0305,0.0332,0.0369,0.037,0.0341,0.034,0,0,0.0101,0.0059,0.0122,0.0135,0.0112,0.0164,0.0172,0.0281,0.0278,0.03,0.0308,0.0335,0.037,0.0371,0.0342,0.0341,0,0,0,0.0072,0.0054,0.0095,0.0128,0.0153,0.0168,0.0177,0.0274,0.0289,0.031,0.0336,0.0371,0.0372,0.0344,0.0342,0.0214,0,0,0,0.0068,0.0036,0.0091,0.0067,0.015,0.0216,0.0166,0.0282,0.0296,0.0336,0.0371,0.0373,0.0345,0.0343,0.022,0.0185,0,0,0,0.0036,0.0033,0.0044,0.0065,0.0116,0.0216,0.0238,0.0286,0.0311,0.0369,0.0373,0.0346,0.0343,0.0225,0.0194,0.0279,0,0,0,-0.0005,-0.0023,0.0042,0.0034,0.0115,0.0146,0.0238,0.028,0.0321,0.0371,0.0345,0.0342,0.0227,0.0199,0.0282,0.0605,0.0618,0,0,-0.0054,-0.003,-0.0033,0.0029,0.0016,0.013,0.01,0.0204,0.028,0.0313,0.0313,0.0218,0.0194,0.0279,0.0448,0.0467,0,0,0,-0.0065,-0.0085,-0.0072,-0.006,-0.0002,0.0014,0.0108,0.0135,0.0171,0.0291,0.0199,0.0188,0.0247,0.0446,0.0459,0.0552,0.033,0.033,0.033,-0.0223,-0.0175,-0.0201,-0.0158,-0.0139,-0.0073,-0.0063,-0.0016,0.0074,0.0052,0.0068,0.0022,0.0225,0.0241,0.0326,0.004,0.0039,0.0039,0.0039,-0.0335,-0.0328,-0.0304,-0.0309,-0.0271,-0.0276,-0.0225,-0.0178,-0.0127,-0.0084,-0.0018,0.0279,0.0249,0.0336,0.003,0.0032,0.0033,0.0033,0.0034,-0.044,-0.0413,-0.0423,-0.0394,-0.0391,-0.0333,-0.0226,-0.0228,-0.021,-0.0199,0.0185,0.0192,0.0297,-0.0098,-0.0098,-0.0098,-0.0097,-0.0097,-0.0097,-0.049,-0.0492,-0.0444,-0.0428,-0.0365,-0.0278,-0.0172,-0.0071,0.0072,0.0098,0.0104,0.0301,-0.0016,0.0022,-0.0095,-0.0095,-0.0096,-0.0096,-0.0096,-0.0493,-0.0458,-0.0377,-0.0311,-0.0157,0.0076,0.0132,0.0452,0.0491,0.0611,0.059,0.03,0.0412,0.0406,0.0456,0.0459,0.0459,0.0459,0.0459,-0.0437,-0.0433,-0.0216,-0.0064,0.0095,0.0263,0.0783,0.103,0.1056,0.1041,0.0857,0.0924,0.0898,0.1037,0.1017,0.1079,0.124,0.124,0.1241,-0.0348,-0.0287,-0.0086,0.0052,0.0238,0.0545,0.1127,0.1568,0.1494,0.1263,0.0905,0.0872,0.0949,0.0901,0.1104,0.1069,0.1166,0,0]}],[{"header":{"parameterUnit":"m.s-1","parameterCategory":2,"la1":30.2992,"la2":30.254,"lo1":-89.0895,"lo2":-89.0443,"dy":0.0025,"dx":0.0025,"nx":19,"ny":19,"refTime":"2026-05-23T03:00:00:Z","depth":"2","parameterNumber":2,"parameterNumberName":"U-component_of_CURRENTS"},"data":[0,0,0,-0.1001,-0.1001,-0.1003,-0.1003,-0.0993,-0.0992,0,0,0,0,0,0,0,0,0,0,0,-0.0993,-0.0993,-0.1001,-0.1001,-0.1003,-0.1003,-0.0993,-0.0992,0,0,0,0,0,0,0,0,0,0,0,-0.0993,-0.0993,-0.0993,-0.1001,-0.1003,-0.1003,-0.0993,-0.0994,0,0,0,0,0,0,0,0,0,0,-0.0994,-0.0994,-0.0993,-0.0993,-0.1001,-0.1003,-0.1003,-0.0995,-0.0994,-0.0988,0,-0.0983,0,-0.099,-0.0991,-0.0991,0,0,0,-0.1001,-0.0994,-0.099,-0.0993,-0.1001,-0.1003,-0.1002,-0.0994,-0.0994,-0.0987,-0.0983,-0.0982,-0.0989,-0.0991,-0.0991,-0.0933,-0.0932,0,0,-0.1001,-0.0999,-0.0991,-0.099,-0.0994,-0.1002,-0.1002,-0.0994,-0.0993,-0.0982,-0.0982,-0.0989,-0.0991,-0.0991,-0.0933,-0.0932,0,0,0,-0.1,-0.0999,-0.0996,-0.099,-0.0993,-0.1002,-0.1002,-0.0993,-0.0991,-0.0982,-0.0989,-0.0991,-0.0991,-0.0934,-0.0933,-0.0938,0,0,0,-0.1,-0.0998,-0.0995,-0.0995,-0.0993,-0.0996,-0.1001,-0.0991,-0.0991,-0.0989,-0.0991,-0.0991,-0.0934,-0.0933,-0.0939,-0.0852,0,0,0,-0.0994,-0.0998,-0.0995,-0.0995,-0.0996,-0.0997,-0.0994,-0.0991,-0.0995,-0.0991,-0.0991,-0.0935,-0.0933,-0.094,-0.0856,-0.0747,0,0,0,-0.0997,-0.1013,-0.0995,-0.1024,-0.0996,-0.1014,-0.0994,-0.1008,-0.1008,-0.0991,-0.0934,-0.0933,-0.0941,-0.0859,-0.075,-0.0551,-0.0516,0,0,-0.1026,-0.1016,-0.1039,-0.1023,-0.1048,-0.1014,-0.1013,-0.1003,-0.0979,-0.0937,-0.0936,-0.0939,-0.0857,-0.0747,-0.0478,-0.0445,0,0,0,-0.1056,-0.107,-0.1076,-0.1085,-0.1079,-0.1014,-0.1026,-0.0994,-0.0943,-0.0972,-0.0911,-0.0856,-0.0789,-0.0677,-0.0651,-0.0927,-0.0927,-0.0927,-0.0927,-0.1087,-0.1098,-0.1098,-0.1095,-0.1084,-0.103,-0.0961,-0.0901,-0.0949,-0.091,-0.0846,-0.0731,-0.0616,-0.0593,-0.0874,-0.0874,-0.0874,-0.0874,-0.0874,-0.1097,-0.1074,-0.1064,-0.1065,-0.0994,-0.0971,-0.0872,-0.0862,-0.0736,-0.0806,-0.0744,-0.0667,-0.0564,-0.0874,-0.0874,-0.0874,-0.0874,-0.0874,-0.0874,-0.1104,-0.1067,-0.1073,-0.0999,-0.0923,-0.0873,-0.0714,-0.0691,-0.0664,-0.0597,-0.044,-0.0438,-0.0679,-0.0588,-0.0588,-0.0587,-0.0586,-0.0585,-0.0585,-0.1043,-0.1038,-0.096,-0.0907,-0.0835,-0.0735,-0.061,-0.0512,-0.037,-0.0335,-0.0334,-0.0632,-0.0641,-0.0658,-0.0572,-0.0574,-0.0576,-0.0577,-0.0578,-0.0963,-0.0944,-0.0831,-0.0757,-0.0598,-0.0424,-0.0389,-0.0127,-0.0034,0.0091,-0.0165,-0.0179,-0.0122,-0.0142,-0.0144,0.0071,0.0071,0.0071,0.0071,-0.0856,-0.0854,-0.0634,-0.0493,-0.0348,-0.0253,0.0078,0.0217,0.0266,0.0259,0.025,0.0168,0.0141,0.0205,0.0177,0.0178,0.0477,0.0477,0.0477,-0.0703,-0.0669,-0.0476,-0.0371,-0.0213,-0.0032,0.0314,0.0532,0.0554,0.048,0.0186,0.0124,-0.0025,-0.0057,0.0013,-0.0021,-0.003,0,0]},{"header":{"parameterUnit":"m.s-1","parameterCategory":2,"la1":30.2992,"la2":30.254,"lo1":-89.0895,"lo2":-89.0443,"dy":0.0025,"dx":0.0025,"nx":19,"ny":19,"refTime":"2026-05-23T03:00:00:Z","depth":"2","parameterNumber":3,"parameterNumberName":"V-component_of_CURRENTS"},"data":[0,0,0,-0.043,-0.0431,-0.0414,-0.0414,-0.0277,-0.0276,0,0,0,0,0,0,0,0,0,0,0,-0.042,-0.042,-0.043,-0.0431,-0.0414,-0.0414,-0.0277,-0.0276,0,0,0,0,0,0,0,0,0,0,0,-0.042,-0.042,-0.042,-0.0431,-0.0414,-0.0414,-0.0277,-0.0313,0,0,0,0,0,0,0,0,0,0,-0.0341,-0.0344,-0.042,-0.042,-0.0431,-0.0414,-0.0414,-0.0316,-0.0311,-0.0258,0,-0.0263,0,-0.028,-0.0266,-0.0265,0,0,0,-0.0408,-0.0348,-0.0363,-0.042,-0.0431,-0.0414,-0.0415,-0.0314,-0.0308,-0.0251,-0.0261,-0.0257,-0.0278,-0.0265,-0.0264,-0.003,-0.0029,0,0,-0.0409,-0.0392,-0.0368,-0.036,-0.0433,-0.0416,-0.0415,-0.0311,-0.0293,-0.0261,-0.0255,-0.0276,-0.0264,-0.0263,-0.0032,-0.003,0,0,0,-0.0427,-0.0392,-0.0412,-0.0364,-0.0379,-0.0416,-0.0415,-0.0297,-0.031,-0.0254,-0.0274,-0.0263,-0.0261,-0.0033,-0.0031,0.0012,0,0,0,-0.0426,-0.0406,-0.0412,-0.0399,-0.0382,-0.0351,-0.0402,-0.0316,-0.0306,-0.0275,-0.0263,-0.026,-0.0035,-0.0032,0.0007,0.0005,0,0,0,-0.042,-0.0404,-0.041,-0.0399,-0.0407,-0.0355,-0.036,-0.0315,-0.0319,-0.0265,-0.026,-0.0036,-0.0032,0.0003,-0.0,-0.0,0,0,0,-0.0393,-0.0399,-0.0409,-0.0384,-0.0407,-0.0338,-0.0361,-0.0301,-0.0251,-0.0262,-0.0035,-0.0031,0.0002,-0.0004,-0.0003,-0.0095,-0.0089,0,0,-0.0392,-0.0397,-0.0376,-0.0387,-0.0307,-0.0338,-0.0219,-0.0182,-0.0174,-0.0061,-0.0056,0.0009,-0.0001,-0.0001,0.0109,0.0108,0,0,0,-0.0368,-0.035,-0.0322,-0.0276,-0.0238,-0.0165,-0.0137,-0.0105,-0.0016,-0.0135,0.0069,0.0062,0.0059,0.0001,0.0003,-0.0014,-0.0015,-0.0015,-0.0016,-0.0336,-0.0299,-0.023,-0.0168,-0.0108,-0.0029,0.0031,0.009,0.0083,0.0139,0.0143,0.0233,0.0178,0.0176,0.0206,0.0206,0.0207,0.0207,0.0207,-0.0292,-0.0254,-0.0158,-0.0093,0.0002,0.0093,0.0205,0.0209,0.0284,0.0266,0.0261,0.0108,0.0178,0.0212,0.0211,0.021,0.021,0.0209,0.0209,-0.0283,-0.0263,-0.0205,-0.0088,0.003,0.0128,0.0204,0.0269,0.031,0.0329,0.022,0.0217,0.0197,0.0304,0.0305,0.0305,0.0305,0.0305,0.0305,-0.0321,-0.0256,-0.0204,-0.0091,-0.0037,0.0048,0.0177,0.0212,0.024,0.0258,0.0257,0.0265,0.0262,0.0204,0.0305,0.0305,0.0305,0.0305,0.0305,-0.0337,-0.0321,-0.0249,-0.0201,-0.0085,-0.0033,0.0065,0.0126,0.016,0.0156,0.0218,0.022,0.0181,0.018,0.0122,0.0196,0.0196,0.0196,0.0196,-0.0368,-0.0348,-0.0258,-0.0202,-0.0152,-0.0064,0.0002,0.0083,0.0123,0.0132,0.0135,0.0109,0.0114,0.0071,0.0072,0.0011,0.0056,0.0056,0.0056,-0.0366,-0.0339,-0.0287,-0.0218,-0.017,-0.0107,0.0017,0.0167,0.0141,0.0055,0.0159,0.0177,0.0145,0.0151,0.0087,0.0088,-0.0009,0,0]}],[{"header":{"parameterUnit":"m.s-1","parameterCategory":2,"la1":30.2992,"la2":30.254,"lo1":-89.0895,"lo2":-89.0443,"dy":0.0025,"dx":0.0025,"nx":19,"ny":19,"refTime":"2026-05-23T03:00:00:Z","depth":"4","parameterNumber":2,"parameterNumberName":"U-component_of_CURRENTS"},"data":[0,0,0,0.0066,0.0065,-0.0018,-0.0018,-0.0187,-0.0188,0,0,0,0,0,0,0,0,0,0,0,0.0096,0.0096,0.0066,0.0065,-0.0017,-0.0018,-0.0187,-0.0188,0,0,0,0,0,0,0,0,0,0,0,0.0096,0.0096,0.0096,0.0065,-0.0017,-0.0018,-0.0186,-0.0113,0,0,0,0,0,0,0,0,0,0,-0.0027,0.0015,0.0096,0.0096,0.0065,-0.0017,-0.0018,-0.0109,-0.0118,-0.0161,0,-0.0158,0,-0.0171,-0.0199,-0.02,0,0,0,0.0044,0.0022,0.0006,0.0096,0.0064,-0.0017,0.0014,-0.0114,-0.0124,-0.0173,-0.016,-0.0166,-0.0173,-0.02,-0.0201,-0.0342,-0.0343,0,0,0.0049,0.0068,0.0013,0.0,0.0062,0.0017,0.0012,-0.0119,-0.0126,-0.0161,-0.017,-0.0176,-0.0201,-0.0203,-0.0342,-0.0342,0,0,0,0.0076,0.0071,0.0058,0.0007,0.0001,0.0015,0.0009,-0.0121,-0.0122,-0.0172,-0.0178,-0.0202,-0.0204,-0.0342,-0.0342,-0.0301,0,0,0,0.0078,0.0088,0.0061,0.0069,0.0004,-0.0053,0.001,-0.0113,-0.0128,-0.0177,-0.0202,-0.0206,-0.0341,-0.0342,-0.0301,-0.0241,0,0,0,0.0097,0.009,0.0088,0.0071,0.0045,-0.005,-0.0061,-0.0117,-0.0132,-0.02,-0.0206,-0.0341,-0.0342,-0.0302,-0.0243,-0.0219,0,0,0,0.0106,0.0105,0.0089,0.0073,0.0046,-0.0004,-0.006,-0.0125,-0.018,-0.0203,-0.0341,-0.0342,-0.0302,-0.0245,-0.022,-0.0201,0,0,0,0.0108,0.0105,0.0093,0.0077,0.0049,0.0005,-0.004,-0.014,-0.0209,-0.0306,-0.0309,-0.0301,-0.0243,-0.0219,-0.0249,0,0,0,0,0.0095,0.0095,0.008,0.006,0.002,-0.0013,-0.0096,-0.0134,-0.0239,-0.0241,-0.0329,-0.0294,-0.0279,-0.0276,-0.0346,-0.0346,-0.0346,-0.0346,-0.0346,0.0133,0.0104,0.0082,0.0048,0.002,-0.0039,-0.0069,-0.0143,-0.0225,-0.0268,-0.0283,-0.026,-0.026,-0.0332,-0.0332,-0.0332,-0.0331,-0.0331,-0.0331,0.0146,0.012,0.0093,0.0061,0.0025,-0.0013,-0.0071,-0.0118,-0.0179,-0.0252,-0.0243,-0.0261,-0.0328,-0.0329,-0.0329,-0.0329,-0.033,-0.033,-0.033,0.0167,0.0143,0.0124,0.0085,0.0045,-0.0003,-0.0029,-0.0081,-0.0129,-0.013,-0.0165,-0.0222,-0.0198,-0.0164,-0.0163,-0.0163,-0.0163,-0.0162,-0.0162,0.018,0.0156,0.014,0.01,0.0074,0.0036,-0.0016,-0.0038,-0.0085,-0.0087,-0.0134,-0.0203,-0.0209,-0.0189,-0.0157,-0.0158,-0.0158,-0.0159,-0.0159,0.0176,0.0167,0.0157,0.0137,0.009,0.0063,0.0016,-0.0006,-0.001,-0.0003,-0.0065,-0.0071,-0.0073,-0.0081,-0.0057,0.0016,0.0017,0.0017,0,0.0177,0.0169,0.0155,0.0141,0.0121,0.0074,0.0061,0.0031,0.0023,0.0044,-0.0011,-0.008,-0.0085,-0.009,-0.0096,-0.007,0,0,0,0.0176,0.0165,0.0163,0.0143,0.0126,0.009,0.0054,0.0059,0.0033,0.0021,0.0028,0.0025,-0.0142,-0.014,-0.0157,-0.0164,-0.0132,0,0]},{"header":{"parameterUnit":"m.s-1","parameterCategory":2,"la1":30.2992,"la2":30.254,"lo1":-89.0895,"lo2":-89.0443,"dy":0.0025,"dx":0.0025,"nx":19,"ny":19,"refTime":"2026-05-23T03:00:00:Z","depth":"4","parameterNumber":3,"parameterNumberName":"V-component_of_CURRENTS"},"data":[0,0,0,-0.0406,-0.0408,-0.0506,-0.0506,-0.0614,-0.0614,0,0,0,0,0,0,0,0,0,0,0,-0.0383,-0.0384,-0.0406,-0.0408,-0.0506,-0.0506,-0.0614,-0.0614,0,0,0,0,0,0,0,0,0,0,0,-0.0383,-0.0384,-0.0385,-0.0408,-0.0506,-0.0507,-0.0613,-0.0548,0,0,0,0,0,0,0,0,0,0,-0.0457,-0.0442,-0.0384,-0.0385,-0.0409,-0.0506,-0.0507,-0.0545,-0.0552,-0.0559,0,-0.0575,0,-0.0586,-0.062,-0.062,0,0,0,-0.0424,-0.0436,-0.0448,-0.0385,-0.041,-0.0505,-0.0466,-0.0549,-0.0557,-0.0568,-0.0577,-0.0581,-0.0587,-0.062,-0.0621,-0.0686,-0.0686,0,0,-0.0418,-0.0416,-0.0443,-0.0453,-0.0436,-0.0463,-0.0469,-0.0554,-0.057,-0.0577,-0.0583,-0.0589,-0.0621,-0.0621,-0.0686,-0.0686,0,0,0,-0.0392,-0.0412,-0.0423,-0.0449,-0.0462,-0.0465,-0.0472,-0.0567,-0.0567,-0.0584,-0.0591,-0.0621,-0.0622,-0.0686,-0.0686,-0.0652,0,0,0,-0.039,-0.0395,-0.0421,-0.0422,-0.046,-0.052,-0.0484,-0.0562,-0.0571,-0.059,-0.0621,-0.0623,-0.0685,-0.0686,-0.0652,-0.0585,0,0,0,-0.0379,-0.0395,-0.0403,-0.0422,-0.0454,-0.0518,-0.0525,-0.0564,-0.0574,-0.062,-0.0623,-0.0685,-0.0686,-0.0653,-0.0588,-0.0517,0,0,0,-0.0377,-0.0398,-0.0403,-0.0438,-0.0453,-0.0506,-0.0525,-0.0592,-0.0636,-0.0622,-0.0685,-0.0686,-0.0653,-0.059,-0.0519,-0.0486,0,0,0,-0.0397,-0.0401,-0.0421,-0.0427,-0.0464,-0.0493,-0.0539,-0.0612,-0.0636,-0.0659,-0.0661,-0.0652,-0.0588,-0.0517,-0.0504,0,0,0,0,-0.0423,-0.0432,-0.045,-0.0474,-0.0508,-0.0521,-0.0593,-0.0609,-0.0648,-0.0659,-0.0667,-0.0627,-0.0583,-0.0574,-0.0687,-0.0687,-0.0687,-0.0687,-0.0687,-0.0431,-0.0444,-0.047,-0.0489,-0.0516,-0.0558,-0.0563,-0.059,-0.065,-0.0659,-0.0613,-0.0548,-0.0543,-0.0657,-0.0657,-0.0657,-0.0657,-0.0657,-0.0657,-0.0432,-0.044,-0.0457,-0.0486,-0.0495,-0.0525,-0.0528,-0.0553,-0.0523,-0.0592,-0.0553,-0.0558,-0.0654,-0.0654,-0.0655,-0.0655,-0.0656,-0.0656,-0.0656,-0.0417,-0.0422,-0.0446,-0.046,-0.0469,-0.049,-0.0444,-0.0451,-0.0455,-0.0419,-0.0402,-0.0493,-0.0476,-0.0416,-0.0416,-0.0415,-0.0415,-0.0414,-0.0414,-0.0389,-0.041,-0.042,-0.0437,-0.044,-0.0425,-0.039,-0.0352,-0.0344,-0.0312,-0.0398,-0.0465,-0.0473,-0.0461,-0.0405,-0.0406,-0.0408,-0.0408,-0.0409,-0.0373,-0.0383,-0.0382,-0.0392,-0.0388,-0.037,-0.0349,-0.0247,-0.018,-0.0125,-0.025,-0.0261,-0.0247,-0.0259,-0.024,-0.0115,-0.0115,-0.0114,0,-0.035,-0.036,-0.036,-0.0358,-0.0333,-0.0337,-0.024,-0.0193,-0.014,-0.0134,-0.0196,-0.0344,-0.035,-0.0346,-0.0355,-0.0338,0,0,0,-0.0329,-0.0334,-0.0332,-0.0344,-0.0319,-0.0239,-0.0213,-0.0164,-0.0158,-0.0074,-0.0095,-0.01,-0.0339,-0.0378,-0.038,-0.039,-0.037,0,0]}]]